Volver al catálogo

EUTE 36B

EUTE W7

ActivoComunicacionesGEO
NORAD 36101·PAYLOAD·🇪🇺 EU

Lanzado Nov 24, 2009 desde Baikonur Cosmodrome

Loading…

TLE

ActualizadoSource: Space-Track

Época: Sep 14, 2026, 14:02 UTC

1 36101U 09065A   26257.58515439  .00000105  00000-0  00000-0 0  9999
2 36101   0.7107  81.1595 0005725  89.1975  84.3537  1.00270860 61602

Sigue EUTE 36B en tiempo real con AllMySat

Download on the App Store